Showing default

ISTSAT-1, 60238

Orbit data source: Space-Track

ISTSAT-1, 60238 is a Portuguese payload satellite in LEO that was launched on Tue, 09 Jul 2024 UTC via an ARIANE 62 launch vehicle from the French Guiana (FRGUI). Payload-class satellites include a variety of spacecraft equipped with specific instruments for various scientific and technological missions. These include communications satellites like Starlink; space stations such as the ISS; scientific satellites like the Hubble; Earth observation satellites from companies like Planet Labs, Umbra, and HawkEye 360; GPS; miniature CubeSats for education and research; and military/defense satellites.

Loading next visibility...
Identifier
60238, 2024-128D
Orbit
LEO
Country
Flag of PTPT / POR
Related business
Manufacturer
ISTL
Mission
Operational Amateur Technology
Bus & Motor
CUBESAT 1U, Unknown motor
Mass
1 kg wet, 1 kg dry
Launch date (UTC)
2024-07-09 (2 years ago)
Launch vehicle
ARIANE 62
Launch site
French Guiana (FRGUI)
Object type
Payload
Rocket body
Debris
Shape & HBR
Box, 0.1 m
Radar Cross Section
0.015 m², Medium (>0.1 m² and < 1m²)

Expand to show TLE details & history
Last TLE update: 10 hours ago

TLE from 10 hours ago
0 ISTSAT-1
1 60238U 24128D   26264.86283589  .00003921  00000-0  23471-3 0  9990
2 60238  61.9868 224.0240 0024189 148.9006 211.3528 15.12609719121080
Epoch: 2026-09-21T20:42Z
TLE epoch observation values (Epoch: 2026-09-21T20:42:29.020Z)
Latitude
Longitude
-87.33348°
Altitude
544.301 km
Speed
7.583 km/s
True Right ascension
14h 56m 05s
True Declination
0° 00' 00"
Sunlit
Object was in daylight at epoch
Visualization orbit readout
Latitude
Unknown
Longitude
Unknown
Altitude
Unknown
Speed
Unknown
Apparent Right ascension
Unknown
Apparent Declination
Unknown
Sunlit
N/A
Visualization observer readout
Local Sidereal Time
00:05:35
Azimuth
Unknown
Elevation
Unknown
Doppler factor
Unknown
Orbital elements
Apogee altitude
543.874 km
Perigee altitude
510.468 km
Semi-major axis
6,905.308 km
Eccentricity
0.00242
Inclination
61.9868°
RAAN
224.024°
Arg. of periapsis
148.9006°
True anomaly
211.20895°
Mean anomaly
211.3528°
Eccentric anomaly
211.28084°
Mean motion
3.78241 °/min
Orbital period
95.18 mins
BSTAR
0.00023471
Loading maneuver chart data...
Computing Atmospheric mass density...
Loading historical data...
Loading historical data...
Loading historical data...
Loading historical data...
Loading historical data...
Loading historical data...
Loading historical data...

Documentation

Showing up to 5 results
|